Location: Dampvalley
(47.9094°N, 6.1967°E)
Time: 21:07:40
(UTC+00:00)

ADEOS - Pass Details

Date: 05 March 2021
Orbit: 792 x 794 km, 98.9° (Epoch: 20 April)

Event Time Altitude Azimuth Distance (km) Brightness Sun altitude
Rises 05:15:49 0° 10° (N) 3,309 6.9 -9.6°
Reaches altitude 10° 05:18:14 10° 4° (N) 2,375 6.1 -9.2°
Maximum altitude 05:23:12 45° 293° (WNW) 1,075 3.9 -8.4°
Drops below altitude 10° 05:28:08 10° 222° (SW) 2,359 5.6 -7.5°
Sets 05:30:32 0° 216° (SW) 3,284 6.4 -7.1°
